CZ-6A DEB

Satellite information

Favourite Embed

Satellite Type and Status

DEBRISIN ORBIT

Key statistics

Satellite CZ-6A DEB at a glance.

Uptime

494

Days in orbit

Revolutions

≈ 14.5

Per day

Orbit

LEO

Low Earth Orbit

Inclination

88.9

Latest

Satellite identification and parameters

Extended collection of information and parameters for CZ-6A DEB.

Object identification

Identified? True

Debris? True

Object name: CZ-6A DEB

International designator: 2024-140QB

Object number (NORAD): 61133

Object ID (CCSDS): 61133

Country: PEOPLES REPUBLIC OF CHINA (PRC)

Current information (Y/N): Y

RCS size: SMALL

Orbital parameters

Period: 98.972 minutes

Inclination: 88.9497 deg

SMA: 7087.631 km

Apoapsis: 765.726 km

Periapsis: 653.265 km

RAAN: 289.8129 deg

Eccentricy: 0.00793364

Argument of periapsis: 166.134 deg

Mean anomaly: 194.2075 deg

Mean motion: 14.5496028 rev/day

Mean motion (dot): 0.0000647 rev/day2

B* drag term: 0.0014378292 1/REarth

Two-line elements (TLE)

Creation date: Dec. 12, 2025, 3:16 a.m.

Reference frame: TEME

Reference center: EARTH

Epoch: Dec. 11, 2025, 7:44 p.m. UTC

TLE line 0: 0 CZ-6A DEB

TLE line 1: 1 61133U 24140QB 25345.82284419 .00006470 00000-0 14378-2 0 9994

TLE line 2: 2 61133 88.9497 289.8129 0079336 166.1340 194.2075 14.54960280 69157

Live tracking on map

Real-time ground track for satellite CZ-6A DEB.

In-orbit conjunctions

A list of the most updated potential collisions computed for object CZ-6A DEB.

Target Orbit TCA Probability of collision Miss distance Type
FENGYUN 1C DEB SSO 2025-01-21 09:48:45 0.0001969117 364.0 (m) DEBRIS
COSMOS 2251 DEB LEO 2024-11-14 21:23:42 0.0001956681 668.0 (m) DEBRIS
ALOS SSO 2024-10-31 10:38:37 0.0005921226 576.0 (m) PAYLOAD
FENGYUN 1C DEB SSO 2024-10-05 10:47:04 0.0001133087 809.0 (m) DEBRIS
COSMOS 1867 COOLANT LEO 2024-10-02 11:51:59 0.0002526773 607.0 (m) DEBRIS

Associated space launch

18 Low Earth Orbit communication satellites with Ku, Q and V band payloads for the G60 constellation operated by Shanghai Spacecom Satellite Technology (SSST) with funding backed by the Shanghai local government. Initial constellation will consist of 1296 satellites by 2027 with long term plans to expand it to 12000 satellites.

CZ-6A DEB was lifted into orbit during the mission ‘Long March 6A | G60 Polar Group 01’, on board a Long March 6A space rocket.

The launch took place on Aug. 6, 2024, 6:42 a.m. from Launch Complex 9A.

For more information about the launch, click the button.

Launch to space Long March 6A | G60 Polar Group 01
Long March 6A | G60 Polar Group 01

Agency: N/A

Status: Launch Successful

Launch date: Aug. 6, 2024, 6:42 a.m. UTC

Rocket: Long March 6A

Launch pad: Launch Complex 9A

Location: Taiyuan Satellite Launch Center, People's Republic of China

...

Latest news about this satellite

News about space launch
Brightness of first Chinese broadband constellation satellites alarms astronomers

The first satellites of a Chinese broadband constellation are significantly brighter than those of Western systems, posing a new challenge for astronomers.

News about space launch
Chinese rocket stage breaks up into cloud of more than 700 pieces of space debris

HELSINKI — A Chinese Long March 6A rocket’s upper stage has fragmented into a cloud of over 700 pieces of space debris, adding to concerns about long-term orbital safety. China […]

News about space launch
China's Thousand Sails Megaconstellation Kicks Off with Dangerous Debris Field

China's Thousand Sails Megaconstellation Kicks Off with Dangerous Debris Field


Newsletter sign-up

Weekly statistics, charts and insights to help you stay on top of the space industry.